Location: Enid
(36.3960°N, 97.8780°W)
Time: 20:35:05
(UTC-05:00)

Hubble Space Telescope - Visible Passes

Search period start: 28 March 2017 00:00
Search period end: 07 April 2017 00:00
Orbit: 538 x 542 km, 28.5° (Epoch: 27 March)

Date Brightness Start Highest point End Pass type
(mag) Time Alt. Az. Time Alt. Az. Time Alt. Az.
28 Mar 2.4 05:40:53 21° S 05:41:01 21° SSE 05:44:11 10° ESE visible
29 Mar 2.4 05:31:23 23° SSE 05:31:23 23° SSE 05:34:15 10° ESE visible
30 Mar 2.5 05:21:52 22° SSE 05:21:52 22° SSE 05:24:16 10° ESE visible
31 Mar 2.7 05:12:23 20° SE 05:12:23 20° SE 05:14:15 10° ESE visible
31 Mar 2.3 06:48:14 10° WSW 06:51:31 23° S 06:54:49 10° SE visible
01 Apr 3.0 05:02:56 17° SE 05:02:56 17° SE 05:04:12 10° ESE visible
01 Apr 2.4 06:38:18 10° WSW 06:41:26 21° SSW 06:44:35 10° SE visible
02 Apr 3.4 04:53:31 13° SE 04:53:31 13° SE 04:54:08 10° ESE visible
02 Apr 2.5 06:28:54 12° SW 06:31:20 19° SSW 06:34:15 10° SSE visible
03 Apr 2.6 06:19:34 13° SW 06:21:13 16° SSW 06:23:50 10° SSE visible
04 Apr 2.7 06:10:19 13° SSW 06:11:06 14° SSW 06:13:15 10° SSE visible
05 Apr 3.0 06:01:10 11° SSW 06:01:10 11° SSW 06:02:22 10° S visible
